Aeroporto :
LOGIN :

Iscrizione | Disclaimer

   EN    FR    IT 

 










Sommario :    VFR   VFR Marginale   IFR   IFR Intensivo   IFR Molto Intensivo
Visibilità : 
Base nubi : 
>= 8 km
>= 3000ft
5 / 8 km
1000 / 3000 ft
1500m / 5 km
500 / 1000 ft
800 / 1500m
200 / 500 ft
< 800m
< 200 ft
Simboli :   Temporali  Nebbia  Neve Forte  Precipitazioni Forti  Vento > 20 kt
SIGMETs :   Varie  Temporali  Ghiacco  Turbolenza  Onda orograficha  Ceneri Vulcaniche






- Altitudine del aeroporto : 243 ft
- Codice IATA : HOV


ENOV - Ørsta-Volda , Hovden

ULTIMO METAR :
  • 020850Z VRB06KT 9999 BKN040 08/M00 Q1009 RMK WIND 2175FT 16038G52KT

METARs OBSOLETI :
  • 020820Z VRB04KT 9999 SCT040 BKN053 08/M01 Q1010 RMK WIND 2175FT 16032KT
  • 020750Z VRB06G20KT 9999 SCT045 BKN065 08/M01 Q1010 RMK WIND 2175FT 16027KT
  • 020620Z VRB09G19KT 9999 BKN040 08/M00 Q1011 RMK WIND 2175FT 16037KT

TAF N/A



MetMap, La meteo Aeronautica in un colpo d'occhio ! - Copyright ORBIFLY Dicembre 2007 - Disclaimer

ORBIFLY MET'MAP TEAM :

Programmazione e sviluppo : Alexandra Zaïnal
Concezione : Baudouin d'Aumeries
Aiuto per la programmazione : Marc-Olivier Méhu
Supporto tecnico e logistico : Manuel Goepfert
Aiuto per la traduzione : Arnaldo La Scala

Contatto : metmap@orbifly.com




FONTI E CREDITI :

   NOAA